EW8552 Weather Reports


time (UTC)temp
C
wind
direction
speed
KPH
gust
KPH
rain 1hr
cm
rain 24hr
cm
rain mn
cm
humidity
%
barometer
mb
20260510070038 12 0.0 0.0 0.00 0.03 0.00 1 1010.2
20260510063018 13 0.0 0.0 0.00 0.03 0.00 1 1010.0
20260510060037 13 0.0 0.0 0.00 0.03 0.00 1 1010.1
20260510053017 13 0.0 0.0 0.00 0.03 0.00 1 1010.6
20260510050017 15 0.0 0.0 0.00 0.03 0.00 14 1010.3
20260510043018 15 0.0 0.0 0.00 0.03 0.00 19 1010.3
20260510040037 15 0.0 0.0 0.00 0.03 0.00 32 1010.2
20260510033017 15 0.0 0.0 0.00 0.03 0.00 46 1010.1
20260510030037 16 0.0 0.0 0.00 0.03 0.00 57 1010.0
20260510023017 16 0.0 1.6 0.00 0.03 0.00 62 1009.8
20260510020018 17 0.0 0.0 0.00 0.03 0.00 64 1009.6
20260510013017 17 0.0 1.6 0.00 0.03 0.00 68 1009.4
20260510010037 18 0.0 1.6 0.00 0.03 0.00 69 1008.8
20260510003017 18 0.0 0.0 0.00 0.03 0.00 70 1008.9
20260510000017 20 0.0 0.0 0.00 0.03 0.03 65 1008.5
20260509233017 21 0.0 0.0 0.00 0.03 0.03 62 1008.3
20260509230037 21 0.0 3.2 0.00 0.03 0.03 59 1008.2
20260509223018 22 0.0 1.6 0.00 0.03 0.03 55 1008.2
20260509220017 22 0.0 1.6 0.00 0.03 0.03 54 1008.3
20260509213017 23 0.0 4.8 0.00 0.03 0.03 52 1008.3
20260509210037 23 0.0 6.4 0.00 0.03 0.03 52 1008.3
20260509203017 22 0.0 6.4 0.00 0.03 0.03 56 1008.1
20260509200036 21 0.0 4.8 0.00 0.03 0.03 60 1008.5
20260509193016 20 0.0 3.2 0.00 0.03 0.03 66 1009.1
20260509190017 18 0.0 1.6 0.03 0.03 0.03 62 1009.3
20260509183017 17 0.0 1.6 0.03 0.03 0.03 39 1009.2
20260509180016 20 0.0 3.2 0.00 0.00 0.00 63 1010.0
20260509173037 20 0.0 1.6 0.00 0.00 0.00 61 1010.2
20260509170016 19 0.0 3.2 0.00 0.00 0.00 63 1010.3
20260509163016 18 0.0 4.8 0.00 0.00 0.00 62 1010.4
20260509160016 18 0.0 6.4 0.00 0.00 0.00 63 1010.6
20260509153016 18 0.0 4.8 0.00 0.00 0.00 61 1010.8
20260509150036 17 0.0 3.2 0.00 0.00 0.00 64 1011.1
20260509143016 16 0.0 4.8 0.00 0.00 0.00 68 1011.5
20260509140015 16 0.0 4.8 0.00 0.00 0.00 67 1011.3
20260509133016 15 0.0 4.8 0.00 0.00 0.00 67 1011.6
20260509130018 15 0.0 9.7 0.00 0.00 0.00 65 1011.6
20260509123017 15 0.0 3.2 0.00 0.00 0.00 65 1011.3
20260509120017 15 0.0 3.2 0.00 0.00 0.00 64 1011.3
20260509113037 15 0.0 1.6 0.00 0.00 0.00 62 1011.3
20260509110018 14 0.0 1.6 0.00 0.00 0.00 59 1011.2
20260509103017 14 0.0 0.0 0.00 0.00 0.00 58 1010.9
20260509100017 14 0.0 0.0 0.00 0.00 0.00 57 1010.8
20260509093017 14 0.0 1.6 0.00 0.00 0.00 57 1010.9
20260509090017 14 0.0 1.6 0.00 0.00 0.00 58 1011.0
20260509083018 14 0.0 3.2 0.00 0.00 0.00 60 1011.5
20260509080017 14 0.0 4.8 0.00 0.00 0.00 60 1011.7
20260509073017 14 0.0 4.8 0.00 0.00 0.00 60 1011.8